Volver al catálogo

STARLINK-4368

ActivoComunicacionesSSO
NORAD 53234·PAYLOAD·🇺🇸 United States

Lanzado Jul 22, 2022 desde Vandenberg Space Force Base

Loading…

Próximos Pases (próximas 24 horas)

TLE

ActualizadoSource: CelesTrak SupGP

Época: Sep 15, 2026, 02:03 UTC

1 53234C 22084AX  26258.08590278  .00057029  00000+0  15824-2 0  2587
2 53234  97.4813 322.6761 0001196 108.8958 267.2936 15.36940296    15

Sigue STARLINK-4368 en tiempo real con AllMySat

Download on the App Store